NKS528 MMUN-KFLL

Flight info

Callsign NKS528
Flight time 1h 14m
Altitude 39000
Route NUDA1A/12R NUDAL UV106 PODON UG765 MAXIM BHHIA3
Aircraft A20N/M-SDE2E3FGHIRWXY/LB1

Departure

Time 2026-05-03 20:19
Airport Cancún International Airport (MMUN)

Arrival

Time 2026-05-03 21:34
Airport Fort Lauderdale Hollywood International Airport (KFLL)
Time Latitude Longitude Altitude Speed Heading
2026-05-03 20:15 21.04643 -86.88993 25 ft 6 kts 264°
2026-05-03 20:15 21.04641 -86.89001 28 ft 0 kts 250°
2026-05-03 20:18 21.04630 -86.89017 26 ft 4 kts 225°
2026-05-03 20:18 21.04552 -86.89064 24 ft 12 kts 186°
2026-05-03 20:18 21.04497 -86.89039 23 ft 14 kts 137°
2026-05-03 20:18 21.04407 -86.88900 23 ft 48 kts 124°
2026-05-03 20:19 21.04092 -86.88393 25 ft 111 kts 124°
2026-05-03 20:19 21.03567 -86.87560 66 ft 152 kts 124°
2026-05-03 20:19 21.02998 -86.86642 587 ft 155 kts 124°
2026-05-03 20:19 21.02372 -86.85629 1143 ft 169 kts 125°
2026-05-03 20:20 21.01718 -86.84529 1774 ft 181 kts 122°
2026-05-03 20:20 21.01063 -86.83317 2221 ft 196 kts 121°
2026-05-03 20:20 21.00326 -86.81953 2452 ft 229 kts 121°
2026-05-03 20:20 20.99471 -86.80378 2747 ft 259 kts 120°
2026-05-03 20:21 20.98571 -86.78639 3432 ft 271 kts 118°
2026-05-03 20:21 20.97719 -86.76854 4468 ft 270 kts 116°
2026-05-03 20:21 20.96880 -86.75015 4997 ft 280 kts 116°
2026-05-03 20:21 20.96187 -86.73086 5032 ft 279 kts 101°
2026-05-03 20:22 20.96150 -86.71042 5316 ft 281 kts 79°
2026-05-03 20:22 20.96556 -86.68985 6198 ft 283 kts 78°
2026-05-03 20:22 20.96956 -86.66869 7212 ft 292 kts 78°
2026-05-03 20:22 20.97343 -86.64773 8398 ft 290 kts 78°
2026-05-03 20:23 20.97738 -86.62636 9305 ft 297 kts 77°
2026-05-03 20:23 20.98149 -86.60415 10116 ft 302 kts 76°
2026-05-03 20:23 20.98745 -86.58239 10542 ft 320 kts 68°
2026-05-03 20:23 20.99559 -86.55925 10791 ft 344 kts 68°
2026-05-03 20:24 21.00420 -86.53487 11324 ft 354 kts 68°
2026-05-03 20:24 21.01292 -86.51004 12056 ft 359 kts 68°
2026-05-03 20:24 21.02168 -86.48493 12774 ft 363 kts 68°
2026-05-03 20:24 21.03054 -86.45945 13483 ft 368 kts 69°
2026-05-03 20:25 21.03953 -86.43355 14136 ft 373 kts 69°
2026-05-03 20:25 21.04860 -86.40741 14753 ft 377 kts 69°
2026-05-03 20:25 21.05778 -86.38092 15361 ft 382 kts 69°
2026-05-03 20:25 21.06707 -86.35412 15961 ft 386 kts 69°
2026-05-03 20:26 21.07646 -86.32699 16548 ft 391 kts 69°
2026-05-03 20:26 21.08595 -86.29956 17134 ft 395 kts 69°
2026-05-03 20:26 21.09556 -86.27181 17707 ft 400 kts 69°
2026-05-03 20:26 21.10529 -86.24367 18201 ft 407 kts 69°
2026-05-03 20:27 21.11518 -86.21502 18644 ft 412 kts 69°
2026-05-03 20:27 21.12513 -86.18620 19197 ft 414 kts 69°
2026-05-03 20:27 21.13514 -86.15716 19674 ft 418 kts 68°
2026-05-03 20:27 21.14524 -86.12786 19885 ft 420 kts 68°
2026-05-03 20:28 21.15534 -86.09854 19966 ft 420 kts 68°
2026-05-03 20:28 21.16546 -86.06917 19970 ft 420 kts 68°
2026-05-03 20:28 21.17555 -86.03983 19971 ft 420 kts 68°
2026-05-03 20:28 21.18565 -86.01047 19970 ft 420 kts 69°
2026-05-03 20:29 21.19483 -85.98078 19969 ft 420 kts 74°
2026-05-03 20:29 21.20095 -85.95011 19970 ft 421 kts 78°
2026-05-03 20:29 21.20671 -85.91941 19973 ft 422 kts 78°
2026-05-03 20:29 21.21259 -85.88844 20263 ft 425 kts 78°
2026-05-03 20:30 21.21849 -85.85742 20864 ft 426 kts 78°
2026-05-03 20:30 21.22444 -85.82613 21365 ft 430 kts 78°
2026-05-03 20:30 21.23043 -85.79462 21860 ft 433 kts 78°
2026-05-03 20:30 21.23646 -85.76285 22354 ft 437 kts 78°
2026-05-03 20:31 21.24253 -85.73080 22851 ft 440 kts 78°
2026-05-03 20:31 21.24863 -85.69853 23342 ft 444 kts 78°
2026-05-03 20:31 21.25479 -85.66599 23778 ft 447 kts 77°
2026-05-03 20:31 21.26454 -85.63436 24168 ft 448 kts 63°
2026-05-03 20:32 21.28085 -85.60591 24543 ft 449 kts 49°
2026-05-03 20:32 21.30261 -85.58199 24915 ft 449 kts 39°
2026-05-03 20:32 21.32586 -85.55946 25293 ft 453 kts 39°
2026-05-03 20:32 21.34931 -85.53673 25664 ft 456 kts 40°
2026-05-03 20:33 21.37292 -85.51379 26022 ft 459 kts 40°
2026-05-03 20:33 21.39667 -85.49066 26376 ft 463 kts 40°
2026-05-03 20:33 21.42057 -85.46736 26724 ft 466 kts 40°
2026-05-03 20:33 21.44464 -85.44385 27067 ft 469 kts 40°
2026-05-03 20:34 21.46887 -85.42018 27402 ft 472 kts 40°
2026-05-03 20:34 21.49320 -85.39640 27776 ft 474 kts 40°
2026-05-03 20:34 21.51768 -85.37246 28091 ft 477 kts 40°
2026-05-03 20:34 21.54230 -85.34838 28409 ft 480 kts 40°
2026-05-03 20:35 21.56705 -85.32416 28723 ft 483 kts 40°
2026-05-03 20:35 21.59200 -85.29972 29030 ft 486 kts 40°
2026-05-03 20:35 21.61703 -85.27520 29325 ft 489 kts 40°
2026-05-03 20:35 21.64222 -85.25051 29623 ft 492 kts 40°
2026-05-03 20:36 21.66758 -85.22564 29924 ft 494 kts 40°
2026-05-03 20:36 21.69305 -85.20064 30195 ft 497 kts 40°
2026-05-03 20:36 21.71859 -85.17557 30479 ft 499 kts 40°
2026-05-03 20:36 21.74423 -85.15038 30842 ft 499 kts 40°
2026-05-03 20:37 21.76984 -85.12519 31165 ft 500 kts 39°
2026-05-03 20:37 21.79553 -85.09993 31499 ft 500 kts 39°
2026-05-03 20:37 21.82084 -85.07504 31858 ft 500 kts 39°
2026-05-03 20:37 21.84682 -85.04946 32229 ft 499 kts 39°
2026-05-03 20:38 21.87242 -85.02425 32639 ft 497 kts 39°
2026-05-03 20:38 21.89786 -84.99918 33032 ft 496 kts 39°
2026-05-03 20:38 21.92327 -84.97413 33374 ft 496 kts 39°
2026-05-03 20:38 21.94867 -84.94907 33716 ft 495 kts 39°
2026-05-03 20:39 21.97377 -84.92431 34048 ft 494 kts 39°
2026-05-03 20:39 21.99908 -84.89931 34341 ft 494 kts 39°
2026-05-03 20:39 22.02439 -84.87431 34597 ft 494 kts 39°
2026-05-03 20:39 22.04972 -84.84927 34872 ft 494 kts 39°
2026-05-03 20:40 22.07511 -84.82415 34964 ft 499 kts 38°
2026-05-03 20:40 22.10077 -84.79877 35105 ft 501 kts 38°
2026-05-03 20:40 22.12642 -84.77338 35376 ft 500 kts 38°
2026-05-03 20:40 22.15202 -84.74801 35657 ft 500 kts 38°
2026-05-03 20:41 22.17761 -84.72265 35926 ft 499 kts 38°
2026-05-03 20:41 22.20320 -84.69729 36178 ft 499 kts 38°
2026-05-03 20:41 22.22869 -84.67200 36431 ft 499 kts 38°
2026-05-03 20:41 22.25406 -84.64682 36759 ft 496 kts 38°
2026-05-03 20:42 22.27936 -84.62170 37075 ft 494 kts 38°
2026-05-03 20:42 22.30467 -84.59655 37307 ft 494 kts 38°
2026-05-03 20:42 22.32995 -84.57144 37520 ft 494 kts 38°
2026-05-03 20:42 22.35519 -84.54634 37738 ft 493 kts 38°
2026-05-03 20:43 22.38045 -84.52123 37932 ft 494 kts 38°
2026-05-03 20:43 22.43119 -84.47072 38218 ft 496 kts 38°
2026-05-03 20:43 22.45652 -84.44548 38428 ft 495 kts 38°
2026-05-03 20:44 22.48184 -84.42023 38624 ft 495 kts 38°
2026-05-03 20:44 22.50717 -84.39496 38777 ft 495 kts 38°
2026-05-03 20:44 22.53247 -84.36971 38913 ft 495 kts 38°
2026-05-03 20:45 22.58312 -84.31913 39016 ft 495 kts 38°
2026-05-03 20:45 22.63363 -84.26864 39013 ft 493 kts 38°
2026-05-03 20:46 22.68017 -84.21372 39039 ft 497 kts 46°
2026-05-03 20:46 22.72483 -84.15593 39011 ft 502 kts 46°
2026-05-03 20:47 22.76986 -84.09827 39010 ft 500 kts 45°
2026-05-03 20:47 22.81514 -84.04128 39001 ft 498 kts 45°
2026-05-03 20:48 22.86023 -83.98436 38992 ft 497 kts 45°
2026-05-03 20:48 22.90495 -83.92770 39013 ft 500 kts 46°
2026-05-03 20:49 22.95018 -83.87031 39014 ft 498 kts 45°
2026-05-03 20:49 22.99516 -83.81316 39025 ft 499 kts 46°
2026-05-03 20:50 23.04045 -83.75562 39015 ft 502 kts 46°
2026-05-03 20:50 23.08567 -83.69803 39015 ft 501 kts 46°
2026-05-03 20:51 23.13087 -83.64041 39012 ft 501 kts 46°
2026-05-03 20:51 23.17609 -83.58269 39013 ft 501 kts 46°
2026-05-03 20:52 23.22128 -83.52495 39017 ft 502 kts 46°
2026-05-03 20:52 23.26648 -83.46714 39019 ft 502 kts 46°
2026-05-03 20:53 23.31167 -83.40928 39004 ft 502 kts 46°
2026-05-03 20:53 23.35692 -83.35128 38995 ft 503 kts 46°
2026-05-03 20:54 23.39479 -83.30268 39002 ft 503 kts 46°
2026-05-03 20:54 23.46231 -83.21589 38999 ft 503 kts 46°
2026-05-03 20:55 23.50752 -83.15770 38996 ft 503 kts 46°
2026-05-03 20:55 23.55272 -83.09946 39015 ft 503 kts 46°
2026-05-03 20:56 23.59787 -83.04116 39039 ft 503 kts 46°
2026-05-03 20:56 23.64312 -82.98268 39001 ft 505 kts 47°
2026-05-03 20:57 23.68843 -82.92404 39001 ft 505 kts 47°
2026-05-03 20:57 23.73373 -82.86534 39009 ft 506 kts 47°
2026-05-03 20:58 23.77908 -82.80653 39012 ft 506 kts 47°
2026-05-03 20:58 23.82442 -82.74762 39013 ft 507 kts 46°
2026-05-03 20:59 23.86984 -82.68856 39015 ft 508 kts 46°
2026-05-03 20:59 23.91532 -82.62938 38999 ft 509 kts 47°
2026-05-03 21:00 23.95316 -82.58007 38998 ft 510 kts 47°
2026-05-03 21:00 24.00682 -82.51089 39004 ft 509 kts 43°
2026-05-03 21:01 24.05561 -82.45476 39008 ft 510 kts 43°
2026-05-03 21:01 24.10441 -82.39837 39012 ft 510 kts 43°
2026-05-03 21:02 24.15300 -82.34212 38853 ft 507 kts 43°
2026-05-03 21:02 24.17718 -82.31412 38628 ft 506 kts 43°
2026-05-03 21:02 24.20136 -82.28611 38380 ft 506 kts 43°
2026-05-03 21:03 24.22563 -82.25801 38110 ft 509 kts 43°
2026-05-03 21:03 24.24996 -82.22980 37847 ft 510 kts 43°
2026-05-03 21:03 24.27433 -82.20150 37584 ft 510 kts 43°
2026-05-03 21:03 24.29836 -82.17358 37328 ft 510 kts 43°
2026-05-03 21:04 24.32302 -82.14492 37069 ft 511 kts 43°
2026-05-03 21:04 24.34740 -82.11657 36822 ft 512 kts 43°
2026-05-03 21:04 24.37153 -82.08850 36572 ft 512 kts 43°
2026-05-03 21:04 24.39600 -82.06001 36322 ft 513 kts 43°
2026-05-03 21:05 24.42046 -82.03151 36081 ft 513 kts 43°
2026-05-03 21:05 24.44495 -82.00297 35658 ft 515 kts 43°
2026-05-03 21:05 24.46992 -81.97393 34972 ft 518 kts 42°
2026-05-03 21:05 24.49623 -81.94776 34123 ft 518 kts 34°
2026-05-03 21:06 24.52533 -81.92319 33124 ft 522 kts 33°
2026-05-03 21:06 24.55408 -81.89887 32374 ft 521 kts 33°
2026-05-03 21:06 24.58279 -81.87452 31499 ft 522 kts 33°
2026-05-03 21:06 24.61114 -81.85043 30665 ft 523 kts 33°
2026-05-03 21:07 24.63971 -81.82612 30100 ft 518 kts 33°
2026-05-03 21:07 24.66806 -81.80197 29465 ft 512 kts 33°
2026-05-03 21:07 24.69591 -81.77824 29198 ft 500 kts 33°
2026-05-03 21:07 24.72319 -81.75493 28755 ft 493 kts 33°
2026-05-03 21:08 24.75007 -81.73178 28193 ft 489 kts 33°
2026-05-03 21:08 24.77668 -81.70879 27609 ft 484 kts 34°
2026-05-03 21:08 24.80307 -81.68597 27011 ft 481 kts 33°
2026-05-03 21:08 24.82923 -81.66336 26491 ft 476 kts 34°
2026-05-03 21:09 24.85551 -81.64064 25939 ft 471 kts 34°
2026-05-03 21:09 24.88117 -81.61845 25419 ft 466 kts 34°
2026-05-03 21:09 24.90657 -81.59648 24891 ft 463 kts 34°
2026-05-03 21:09 24.93142 -81.57498 24376 ft 459 kts 34°
2026-05-03 21:10 24.95644 -81.55332 23858 ft 455 kts 34°
2026-05-03 21:10 24.98120 -81.53187 23299 ft 451 kts 34°
2026-05-03 21:10 25.00573 -81.51062 22737 ft 446 kts 34°
2026-05-03 21:10 25.02996 -81.48959 22217 ft 440 kts 34°
2026-05-03 21:11 25.05388 -81.46883 21698 ft 435 kts 35°
2026-05-03 21:11 25.07750 -81.44832 21203 ft 430 kts 35°
2026-05-03 21:11 25.10088 -81.42800 20651 ft 427 kts 34°
2026-05-03 21:11 25.12403 -81.40788 20185 ft 421 kts 34°
2026-05-03 21:12 25.14694 -81.38796 19695 ft 417 kts 34°
2026-05-03 21:12 25.16964 -81.36822 19209 ft 413 kts 35°
2026-05-03 21:12 25.19212 -81.34866 18703 ft 410 kts 35°
2026-05-03 21:12 25.21442 -81.32925 18222 ft 406 kts 35°
2026-05-03 21:13 25.23649 -81.30989 17690 ft 402 kts 36°
2026-05-03 21:13 25.25796 -81.29036 17213 ft 398 kts 37°
2026-05-03 21:13 25.27907 -81.27088 16730 ft 393 kts 37°
2026-05-03 21:13 25.29988 -81.25166 16276 ft 388 kts 37°
2026-05-03 21:14 25.32053 -81.23266 15811 ft 384 kts 37°
2026-05-03 21:14 25.34097 -81.21389 15352 ft 380 kts 37°
2026-05-03 21:14 25.36120 -81.19534 14901 ft 376 kts 37°
2026-05-03 21:14 25.38126 -81.17695 14462 ft 373 kts 37°
2026-05-03 21:15 25.40122 -81.15865 13999 ft 370 kts 36°
2026-05-03 21:15 25.42095 -81.14056 13536 ft 367 kts 36°
2026-05-03 21:15 25.44049 -81.12263 13095 ft 362 kts 37°
2026-05-03 21:15 25.45976 -81.10495 12664 ft 358 kts 37°
2026-05-03 21:16 25.47882 -81.08744 12245 ft 354 kts 37°
2026-05-03 21:16 25.49764 -81.07015 11863 ft 349 kts 37°
2026-05-03 21:16 25.51689 -81.05250 11642 ft 370 kts 37°
2026-05-03 21:16 25.53646 -81.03453 11298 ft 359 kts 37°
2026-05-03 21:17 25.55540 -81.01707 10838 ft 351 kts 37°
2026-05-03 21:17 25.56782 -81.00563 10535 ft 352 kts 37°
2026-05-03 21:17 25.59287 -80.98256 10180 ft 346 kts 37°
2026-05-03 21:17 25.61159 -80.96660 10106 ft 333 kts 27°
2026-05-03 21:18 25.63237 -80.95704 10002 ft 315 kts
2026-05-03 21:18 25.65368 -80.95401 9680 ft 305 kts 359°
2026-05-03 21:18 25.67472 -80.95234 9142 ft 303 kts 360°
2026-05-03 21:18 25.69554 -80.95066 8745 ft 296 kts 360°
2026-05-03 21:19 25.71602 -80.94899 8393 ft 295 kts 360°
2026-05-03 21:19 25.73647 -80.94731 8031 ft 294 kts
2026-05-03 21:19 25.75673 -80.94563 7679 ft 291 kts
2026-05-03 21:19 25.77695 -80.94395 7313 ft 293 kts
2026-05-03 21:20 25.79718 -80.94226 7071 ft 287 kts
2026-05-03 21:20 25.81704 -80.94060 7003 ft 288 kts
2026-05-03 21:20 25.83714 -80.93893 6997 ft 290 kts
2026-05-03 21:20 25.85722 -80.93725 7005 ft 289 kts
2026-05-03 21:21 25.87706 -80.93304 7005 ft 293 kts 14°
2026-05-03 21:21 25.89576 -80.92369 7007 ft 297 kts 26°
2026-05-03 21:21 25.91375 -80.91244 7005 ft 296 kts 26°
2026-05-03 21:21 25.93180 -80.90130 7004 ft 297 kts 26°
2026-05-03 21:22 25.94990 -80.89020 7005 ft 298 kts 26°
2026-05-03 21:22 25.96777 -80.87924 7005 ft 297 kts 26°
2026-05-03 21:22 25.98582 -80.86819 7011 ft 295 kts 26°
2026-05-03 21:22 26.00317 -80.85604 7024 ft 297 kts 40°
2026-05-03 21:23 26.01546 -80.83754 6964 ft 302 kts 65°
2026-05-03 21:23 26.02120 -80.81521 6783 ft 299 kts 80°
2026-05-03 21:23 26.02423 -80.79243 6624 ft 298 kts 83°
2026-05-03 21:23 26.02683 -80.76959 6470 ft 297 kts 83°
2026-05-03 21:24 26.02969 -80.74692 6302 ft 296 kts 82°
2026-05-03 21:24 26.03288 -80.72436 6159 ft 294 kts 81°
2026-05-03 21:24 26.03623 -80.70233 6041 ft 286 kts 81°
2026-05-03 21:24 26.03963 -80.68068 5847 ft 286 kts 81°
2026-05-03 21:25 26.04310 -80.65882 5753 ft 284 kts 80°
2026-05-03 21:25 26.04649 -80.63747 5570 ft 279 kts 81°
2026-05-03 21:25 26.04984 -80.61636 5402 ft 278 kts 81°
2026-05-03 21:25 26.05319 -80.59514 5254 ft 278 kts 81°
2026-05-03 21:26 26.05651 -80.57414 5142 ft 272 kts 80°
2026-05-03 21:26 26.05972 -80.55385 5053 ft 261 kts 81°
2026-05-03 21:26 26.06298 -80.53453 5004 ft 247 kts 76°
2026-05-03 21:26 26.06656 -80.51618 5012 ft 248 kts 82°
2026-05-03 21:27 26.06804 -80.49713 5012 ft 246 kts 89°
2026-05-03 21:27 26.06799 -80.47820 4939 ft 243 kts 92°
2026-05-03 21:27 26.06779 -80.45985 4853 ft 231 kts 91°
2026-05-03 21:27 26.06769 -80.44244 4750 ft 219 kts 91°
2026-05-03 21:28 26.06758 -80.42586 4543 ft 212 kts 91°
2026-05-03 21:28 26.06748 -80.40954 4320 ft 209 kts 91°
2026-05-03 21:28 26.06737 -80.39344 4045 ft 208 kts 91°
2026-05-03 21:28 26.06727 -80.37741 3774 ft 208 kts 91°
2026-05-03 21:29 26.06717 -80.36127 3507 ft 208 kts 91°
2026-05-03 21:29 26.06707 -80.34547 3241 ft 202 kts 90°
2026-05-03 21:29 26.06698 -80.33009 2974 ft 193 kts 90°
2026-05-03 21:29 26.06689 -80.31585 2725 ft 176 kts 90°
2026-05-03 21:30 26.06680 -80.30293 2512 ft 158 kts 90°
2026-05-03 21:30 26.06673 -80.29137 2306 ft 143 kts 90°
2026-05-03 21:30 26.06667 -80.28057 2130 ft 140 kts 89°
2026-05-03 21:30 26.06660 -80.26979 1949 ft 138 kts 89°
2026-05-03 21:31 26.06654 -80.25922 1771 ft 136 kts 89°
2026-05-03 21:31 26.06647 -80.24872 1595 ft 136 kts 89°
2026-05-03 21:31 26.06640 -80.23827 1416 ft 134 kts 89°
2026-05-03 21:31 26.06634 -80.22791 1242 ft 134 kts 89°
2026-05-03 21:32 26.06628 -80.21752 1068 ft 134 kts 88°
2026-05-03 21:32 26.06621 -80.20715 894 ft 134 kts 88°
2026-05-03 21:32 26.06598 -80.19693 743 ft 130 kts 89°
2026-05-03 21:32 26.06580 -80.18688 565 ft 131 kts 86°
2026-05-03 21:33 26.06603 -80.17672 375 ft 131 kts 86°
2026-05-03 21:33 26.06588 -80.16646 201 ft 134 kts 86°
2026-05-03 21:33 26.06588 -80.15634 27 ft 126 kts 87°
2026-05-03 21:33 26.06587 -80.14894 18 ft 59 kts 91°
2026-05-03 21:34 26.06582 -80.14462 44 ft 59 kts 89°
2026-05-03 21:34 26.06611 -80.14253 55 ft 0 kts 54°
2026-05-03 21:34 26.06623 -80.14237 54 ft 14 kts 49°
2026-05-03 21:34 26.06669 -80.14231 50 ft 12 kts 319°
2026-05-03 21:35 26.06679 -80.14359 48 ft 20 kts 271°
2026-05-03 21:35 26.06677 -80.14413 46 ft 0 kts 262°
2026-05-03 21:35 26.06675 -80.14473 44 ft 0 kts 269°
2026-05-03 21:36 26.06675 -80.14479 44 ft 9 kts 269°
2026-05-03 21:36 26.06678 -80.14623 36 ft 26 kts 270°
2026-05-03 21:36 26.06676 -80.14782 25 ft 6 kts 271°
2026-05-03 21:37 26.06680 -80.14853 19 ft 22 kts 280°
2026-05-03 21:37 26.06741 -80.14919 16 ft 10 kts
2026-05-03 21:37 26.06767 -80.14871 15 ft 8 kts 89°
2026-05-03 21:37 26.06764 -80.14800 15 ft 10 kts 91°
2026-05-03 21:38 26.06765 -80.14715 15 ft 12 kts 88°
2026-05-03 21:38 26.06767 -80.14609 15 ft 14 kts 89°
2026-05-03 21:38 26.06768 -80.14492 15 ft 12 kts 88°
2026-05-03 21:38 26.06771 -80.14425 15 ft 6 kts 82°
2026-05-03 21:39 26.06788 -80.14390 17 ft 4 kts 39°
2026-05-03 21:39 26.06825 -80.14387 15 ft 9 kts
2026-05-03 21:39 26.06868 -80.14385 15 ft 2 kts 360°
2026-05-03 21:39 26.06878 -80.14385 15 ft 1 kts 359°
2026-05-03 21:40 26.06879 -80.14385 15 ft 0 kts 359°
2026-05-03 21:40 26.06880 -80.14385 15 ft 0 kts 360°